Weather History for KBKN - October, 2012

Change the Weather History Date:

Friday, October 5, 2012

  Actual Average (KPNC) Record (KPNC)
Temperature  
Mean Temperature 52 °F -  
Max Temperature 59 °F 81 °F 95 °F (1956)
Min Temperature 44 °F 56 °F 39 °F (1964)
Degree Days  
Heating Degree Days 14    
Growing Degree Days 2 (Base 50)    
Moisture  
Dew Point 34 °F    
Average Humidity 49    
Maximum Humidity 62    
Minimum Humidity 29    
Precipitation  
Precipitation 0.00 in - - ()
Sea Level Pressure  
Sea Level Pressure 30.21 in    
Wind  
Wind Speed 14 mph (NE)    
Max Wind Speed 23 mph    
Max Gust Speed 30 mph    
Visibility 10 miles    
Events      
Averages and records for this station are not official NWS values.
T = Trace of Precipitation, MM = Missing Value Source: NWS Daily Summary

Daily Weather History Graph

Daily Weather History Graph

Search for Another Location

Airport or City:

Trip Planner

Search our weather history database for the weather conditions in past years. The results will help you decide how hot, cold, wet, or windy it might be!

Date:

Astronomy

Oct. 05, 2012 Rise Set
Actual Time 7:28 AM CDT 7:06 PM CDT
Civil Twilight 7:02 AM CDT 7:32 PM CDT
Nautical Twilight 6:32 AM CDT 8:01 PM CDT
Astronomical Twilight 6:02 AM CDT 8:31 PM CDT
Moon 10:38 PM CDT 12:30 PM CDT
Length of Visible Light 12h 29m
Length of Day
11h 37m
Waning Gibbous, 74% of the Moon is Illuminated
Oct 5
Waning Gibbous
Oct 8
Last Quarter
Oct 15
New
Oct 21
First Quarter
Oct 29
Full

Hourly Weather History & Observations

Time (CDT) Temp. Windchill Dew Point Humidity Pressure Visibility Wind Dir Wind Speed Gust Speed Precip Events Conditions
12:15 AM 53.6 °F - 37.4 °F 54% 30.22 in 10.0 mi NNE 9.2 mph - N/A   Overcast
12:35 AM 53.6 °F - 37.4 °F 54% 30.21 in 10.0 mi NNE 13.8 mph 18.4 mph N/A   Overcast
12:55 AM 53.6 °F - 37.4 °F 54% 30.21 in 10.0 mi NNE 16.1 mph 19.6 mph N/A   Overcast
1:15 AM 53.6 °F - 37.4 °F 54% 30.21 in 10.0 mi NNE 15.0 mph 18.4 mph N/A   Overcast
1:35 AM 53.6 °F - 39.2 °F 58% 30.21 in 10.0 mi NNE 13.8 mph - N/A   Overcast
1:55 AM 53.6 °F - 39.2 °F 58% 30.21 in 10.0 mi NNE 12.7 mph - N/A   Overcast
2:15 AM 53.6 °F - 39.2 °F 58% 30.21 in 10.0 mi NNE 12.7 mph - N/A   Overcast
2:35 AM 53.6 °F - 39.2 °F 58% 30.21 in 10.0 mi NNE 10.4 mph - N/A   Overcast
2:55 AM 53.6 °F - 39.2 °F 58% 30.20 in 10.0 mi NNE 12.7 mph - N/A   Overcast
3:15 AM 53.6 °F - 39.2 °F 58% 30.19 in 10.0 mi NNE 16.1 mph 19.6 mph N/A   Overcast
3:35 AM 53.6 °F - 39.2 °F 58% 30.19 in 10.0 mi NE 11.5 mph - N/A   Overcast
3:55 AM 53.6 °F - 39.2 °F 58% 30.19 in 10.0 mi NE 12.7 mph - N/A   Overcast
4:15 AM 53.6 °F - 39.2 °F 58% 30.17 in 10.0 mi NE 11.5 mph - N/A   Overcast
4:35 AM 53.6 °F - 39.2 °F 58% 30.18 in 10.0 mi NE 9.2 mph - N/A   Overcast
4:55 AM 53.6 °F - 39.2 °F 58% 30.18 in 10.0 mi NE 10.4 mph - N/A   Overcast
5:15 AM 53.6 °F - 39.2 °F 58% 30.18 in 10.0 mi NNE 13.8 mph - N/A   Overcast
5:35 AM 53.6 °F - 39.2 °F 58% 30.19 in 10.0 mi NNE 13.8 mph - N/A   Overcast
5:55 AM 53.6 °F - 39.2 °F 58% 30.19 in 10.0 mi NNE 16.1 mph - N/A   Overcast
6:15 AM 53.6 °F - 37.4 °F 54% 30.19 in 10.0 mi NE 13.8 mph 20.7 mph N/A   Overcast
6:35 AM 53.6 °F - 37.4 °F 54% 30.19 in 10.0 mi NE 15.0 mph - N/A   Overcast
6:55 AM 53.6 °F - 37.4 °F 54% 30.20 in 10.0 mi NE 15.0 mph 21.9 mph N/A   Overcast
7:15 AM 53.6 °F - 37.4 °F 54% 30.20 in 10.0 mi NE 15.0 mph 19.6 mph N/A   Overcast
7:35 AM 51.8 °F - 37.4 °F 58% 30.19 in 10.0 mi NE 16.1 mph 26.5 mph N/A   Overcast
7:55 AM 51.8 °F - 39.2 °F 62% 30.20 in 10.0 mi NE 17.3 mph - N/A   Overcast
8:35 AM 51.8 °F - 39.2 °F 62% 30.20 in 10.0 mi NE 12.7 mph - N/A   Overcast
8:55 AM 51.8 °F - 39.2 °F 62% 30.20 in 10.0 mi NE 17.3 mph 23.0 mph N/A   Overcast
9:15 AM 53.6 °F - 37.4 °F 54% 30.20 in 10.0 mi NE 16.1 mph 21.9 mph N/A   Overcast
9:35 AM 53.6 °F - 37.4 °F 54% 30.20 in 10.0 mi NE 18.4 mph 23.0 mph N/A   Overcast
9:55 AM 53.6 °F - 37.4 °F 54% 30.20 in 10.0 mi NE 20.7 mph 25.3 mph N/A   Overcast
10:15 AM 53.6 °F - 37.4 °F 54% 30.21 in 10.0 mi ENE 17.3 mph - N/A   Overcast
10:35 AM 53.6 °F - 37.4 °F 54% 30.20 in 10.0 mi NE 17.3 mph - N/A   Overcast
10:55 AM 53.6 °F - 37.4 °F 54% 30.20 in 10.0 mi NE 15.0 mph 20.7 mph N/A   Overcast
11:35 AM 55.4 °F - 39.2 °F 54% 30.22 in 10.0 mi NNE 11.5 mph - N/A   Overcast
11:55 AM 53.6 °F - 37.4 °F 54% 30.22 in 10.0 mi NNE 15.0 mph 21.9 mph N/A   Overcast
12:15 PM 55.4 °F - 37.4 °F 51% 30.21 in 10.0 mi NNE 13.8 mph 17.3 mph N/A   Overcast
12:35 PM 55.4 °F - 37.4 °F 51% 30.22 in 10.0 mi NE 16.1 mph 21.9 mph N/A   Overcast
12:55 PM 55.4 °F - 35.6 °F 47% 30.21 in 10.0 mi NE 16.1 mph - N/A   Overcast
1:35 PM 57.2 °F - 33.8 °F 41% 30.21 in 10.0 mi North 19.6 mph 29.9 mph N/A   Overcast
1:55 PM 57.2 °F - 32.0 °F 38% 30.21 in 10.0 mi North 23.0 mph 28.8 mph N/A   Overcast
2:15 PM 57.2 °F - 32.0 °F 38% 30.20 in 10.0 mi NNE 17.3 mph 29.9 mph N/A   Overcast
2:35 PM 57.2 °F - 32.0 °F 38% 30.20 in 10.0 mi NNE 20.7 mph 24.2 mph N/A   Overcast
2:55 PM 59.0 °F - 32.0 °F 36% 30.19 in 10.0 mi NNE 19.6 mph 25.3 mph N/A   Mostly Cloudy
3:15 PM 59.0 °F - 32.0 °F 36% 30.18 in 10.0 mi NE 18.4 mph 21.9 mph N/A   Clear
3:35 PM 59.0 °F - 32.0 °F 36% 30.18 in 10.0 mi NE 20.7 mph 28.8 mph N/A   Clear
3:55 PM 59.0 °F - 32.0 °F 36% 30.17 in 10.0 mi NNE 19.6 mph 29.9 mph N/A   Clear
4:15 PM 59.0 °F - 30.2 °F 34% 30.17 in 10.0 mi NE 16.1 mph 26.5 mph N/A   Clear
4:35 PM 59.0 °F - 30.2 °F 34% 30.17 in 10.0 mi North 18.4 mph 26.5 mph N/A   Clear
4:55 PM 59.0 °F - 28.4 °F 31% 30.17 in 10.0 mi NE 19.6 mph 24.2 mph N/A   Clear
5:15 PM 59.0 °F - 28.4 °F 31% 30.17 in 10.0 mi NNE 19.6 mph 24.2 mph N/A   Clear
5:35 PM 59.0 °F - 26.6 °F 29% 30.17 in 10.0 mi NE 18.4 mph 23.0 mph N/A   Clear
5:55 PM 57.2 °F - 24.8 °F 29% 30.19 in 10.0 mi NE 21.9 mph - N/A   Clear
6:15 PM 57.2 °F - 24.8 °F 29% 30.20 in 10.0 mi NE 16.1 mph 21.9 mph N/A   Clear
6:35 PM 55.4 °F - 24.8 °F 31% 30.20 in 10.0 mi NE 16.1 mph 21.9 mph N/A   Clear
6:55 PM 55.4 °F - 24.8 °F 31% 30.21 in 10.0 mi NE 15.0 mph 21.9 mph N/A   Clear
7:15 PM 53.6 °F - 24.8 °F 33% 30.22 in 10.0 mi NE 13.8 mph 18.4 mph N/A   Clear
7:35 PM 51.8 °F - 24.8 °F 35% 30.23 in 10.0 mi NE 8.1 mph - N/A   Clear
7:55 PM 50.0 °F - 24.8 °F 37% 30.23 in 10.0 mi ENE 6.9 mph - N/A   Partly Cloudy
8:15 PM 48.2 °F - 26.6 °F 43% 30.24 in 10.0 mi NE 6.9 mph - N/A   Scattered Clouds
8:35 PM 48.2 °F - 26.6 °F 43% 30.25 in 10.0 mi NNE 9.2 mph - N/A   Mostly Cloudy
8:55 PM 48.2 °F - 26.6 °F 43% 30.26 in 10.0 mi NNE 8.1 mph - N/A   Mostly Cloudy
9:15 PM 48.2 °F - 28.4 °F 46% 30.27 in 10.0 mi NNE 8.1 mph - N/A   Partly Cloudy
9:35 PM 48.2 °F - 30.2 °F 50% 30.27 in 10.0 mi NNE 9.2 mph - N/A   Clear
9:55 PM 46.4 °F 42.4 °F 32.0 °F 57% 30.28 in 10.0 mi NNE 8.1 mph - N/A   Clear
10:15 PM 46.4 °F 41.9 °F 32.0 °F 57% 30.29 in 10.0 mi NNE 9.2 mph - N/A   Clear
10:35 PM 46.4 °F 42.9 °F 32.0 °F 57% 30.29 in 10.0 mi NNE 6.9 mph - N/A   Clear
10:55 PM 44.6 °F 40.2 °F 32.0 °F 61% 30.29 in 10.0 mi NNE 8.1 mph - N/A   Clear
11:15 PM 44.6 °F 40.7 °F 32.0 °F 61% 30.29 in 10.0 mi NNE 6.9 mph - N/A   Clear
11:35 PM 44.6 °F 39.7 °F 32.0 °F 61% 30.29 in 10.0 mi NNE 9.2 mph - N/A   Clear
11:55 PM 44.6 °F 39.2 °F 32.0 °F 61% 30.29 in 10.0 mi North 10.4 mph - N/A   Clear